Location: Casilda
(33.0440°S, 61.1680°W)
Time: 12:54:35
(UTC-03:00)

ISS - Pass Details

Date: 25 May 2020
Orbit: 417 x 420 km, 51.6° (Epoch: 26 May)

Event Time Altitude Azimuth Distance (km) Brightness Sun altitude
Exits shadow 07:10:01 12° 227° (SW) 1,417 -1.6 -9.6°
Maximum altitude 07:10:59 13° 209° (SSW) 1,360 -1.6 -9.5°
Drops below altitude 10° 07:12:37 10° 181° (S) 1,525 -1.1 -9.1°
Sets 07:15:42 0° 151° (SSE) 2,395 0.2 -8.5°
